Regional Weather Roundup
Issued by NWS Glasgow, MT

Home | Current Version | Previous Version | Text Only | Print | Product List | Glossary On
Versions: 1 2 3 4 5 6 7 8 9 10 11 12 13 14 15 16 17 18 19 20 21 22 23 24 25 26 27 28 29 30 31 32 33 34 35 36 37 38 39 40 41 42 43 44 45
000
ASUS45 KGGW 021615
RWRGGW
HOURLY WEATHER ROUNDUP FOR NORTHEAST MONTANA
NATIONAL WEATHER SERVICE GLASGOW MONTANA
1000 AM MDT THU OCT 02 2014

NOTE: "FAIR" INDICATES FEW OR NO CLOUDS BELOW 12,000 FEET WITH NO
SIGNIFICANT WEATHER AND/OR OBSTRUCTIONS TO VISISBILITY.

NORTHEAST MONTANA


CITY           SKY/WX    TMP DP  RH WIND       PRES   REMARKS
GLASGOW        CLOUDY    41  32  70 NW25G35   29.99R
PLENTYWOOD       N/A     42  36  79 NW23G33     N/A
WOLF POINT       N/A     45  36  70 NW23G30   29.96
JORDAN           N/A     42  35  76 NW16      30.01R
WINNETT          N/A     40  37  89 NW9         N/A
SIDNEY         CLOUDY    45  39  81 W20G29    29.90R
GLENDIVE       CLOUDY    45  37  76 NW26G33   29.94R
MALTA            N/A     39  30  70 NW13        N/A
OPHEIM           N/A     34  28  80 CALM      29.89R

FORT PECK REPORTS


CITY           SKY/WX    TMP DP  RH WIND       PRES   REMARKS
FORT PECK        N/A     40  32  73 NW22        N/A
THE PINES        N/A     41  35  79 N12G20      N/A

SOUTHEAST MONTANA


CITY           SKY/WX    TMP DP  RH WIND       PRES   REMARKS
BILLINGS       PTSUNNY   48  35  60 SW14      30.00R
MILES CITY     MOSUNNY   52  32  46 NW18G24   29.98R
BAKER          SUNNY     52  35  52 W18G24    29.93R
LIVINGSTON     CLOUDY    50  26  39 W20       30.05R

CENTRAL MONTANA


CITY           SKY/WX    TMP DP  RH WIND       PRES   REMARKS
HAVRE          FLURRIES  36  32  85 N13       30.15R
LEWISTOWN      LGT SNOW  34  31  88 NW15G23   30.12R FOG
GREAT FALLS    LGT SNOW  32  32 100 N10       30.22R FOG
CUT BANK       CLOUDY    32  26  78 N23       30.21R
HELENA         CLOUDY    40  29  64 N13G18    30.17R
BUTTE          PTSUNNY   44  29  55 NW7       30.13R
BOZEMAN        CLOUDY    50  31  48 W8        30.10R

WESTERN MONTANA


CITY           SKY/WX    TMP DP  RH WIND       PRES   REMARKS
MISSOULA       MOSUNNY   50  37  61 N8        30.17R
KALISPELL      NOT AVBL

NORTH DAKOTA


CITY           SKY/WX    TMP DP  RH WIND       PRES   REMARKS
WILLISTON      PTSUNNY   47  40  76 NW12      29.86R
DICKINSON      MOSUNNY   51  38  60 W21G28    29.85S
MINOT          MOSUNNY   58  40  51 SW18G26   29.76F
BISMARCK       PTSUNNY   56  45  66 SW6       29.86F

SOUTHERN SASKATCHEWAN


CITY           SKY/WX    TMP DP  RH WIND       PRES   REMARKS
REGINA         PTSUNNY   39  34  81 NW16G29   29.88R
MOOSE JAW      CLOUDY    37  32  81 NW25G33   29.92R
ESTEVAN        CLOUDY    45  41  87 NW18      29.79
SWIFT CURRENT  CLOUDY    32  28  86 NW25G33   29.99R




USA.gov is the U.S. government's official web portal to all federal, state and local government web resources and services.